TimeEDT,TemperatureF,Dew PointF,Humidity,Sea Level PressureIn,VisibilityMPH,Wind Direction,Wind SpeedMPH,Gust SpeedMPH,PrecipitationIn,Events,Conditions,WindDirDegrees,DateUTC
12:00 AM,60.8,57.2,88,29.97,1.8,ESE,8.1,-,0.03,Rain,Heavy Rain,110,2013-05-08 04:00:00
12:12 AM,57.2,55.4,94,29.98,2.0,South,9.2,21.9,0.10,Rain,Heavy Rain,170,2013-05-08 04:12:00
12:24 AM,57.2,55.4,94,29.98,3.0,South,5.8,-,0.16,Rain,Rain,180,2013-05-08 04:24:00
12:32 AM,57.2,55.4,94,29.98,4.0,South,3.5,-,0.20,Rain,Light Rain,180,2013-05-08 04:32:00
12:53 AM,55.9,54.0,93,29.98,5.0,Calm,Calm,-,0.29,Rain,Light Rain,0,2013-05-08 04:53:00
1:53 AM,54.0,53.1,97,29.96,10.0,ENE,4.6,-,0.05,,Mostly Cloudy,70,2013-05-08 05:53:00
2:53 AM,53.1,51.1,93,29.96,10.0,Calm,Calm,-,N/A,,Mostly Cloudy,0,2013-05-08 06:53:00
3:23 AM,51.8,50.0,94,29.95,1.8,Calm,Calm,-,0.00,,Scattered Clouds,0,2013-05-08 07:23:00
3:48 AM,51.8,50.0,94,29.96,0.8,Calm,Calm,-,0.00,,Mostly Cloudy,0,2013-05-08 07:48:00
3:53 AM,52.0,51.1,97,29.96,1.0,Calm,Calm,-,0.00,,Overcast,0,2013-05-08 07:53:00
4:03 AM,51.8,51.8,100,29.96,3.0,Calm,Calm,-,N/A,,Overcast,0,2013-05-08 08:03:00
4:30 AM,53.6,51.8,94,29.96,2.5,Calm,Calm,-,N/A,,Overcast,0,2013-05-08 08:30:00
4:38 AM,53.6,51.8,94,29.97,4.0,Calm,Calm,-,N/A,,Overcast,0,2013-05-08 08:38:00
4:53 AM,53.1,52.0,96,29.97,6.0,Calm,Calm,-,N/A,,Overcast,0,2013-05-08 08:53:00
5:19 AM,51.8,51.8,100,29.96,1.8,Calm,Calm,-,N/A,,Mostly Cloudy,0,2013-05-08 09:19:00
5:41 AM,51.8,51.8,100,29.97,0.5,Calm,Calm,-,N/A,Fog,Fog,0,2013-05-08 09:41:00
5:53 AM,52.0,51.1,97,29.97,0.5,Calm,Calm,-,N/A,Fog,Fog,0,2013-05-08 09:53:00
6:05 AM,51.8,51.8,100,29.97,0.2,Calm,Calm,-,N/A,Fog,Fog,0,2013-05-08 10:05:00
6:40 AM,51.8,50.0,94,29.98,0.5,Calm,Calm,-,N/A,Fog,Fog,0,2013-05-08 10:40:00
6:45 AM,51.8,50.0,94,29.98,1.8,Calm,Calm,-,N/A,,Overcast,0,2013-05-08 10:45:00
6:47 AM,51.8,50.0,94,29.98,3.0,Calm,Calm,-,N/A,,Mostly Cloudy,0,2013-05-08 10:47:00
6:53 AM,52.0,51.1,97,29.98,4.0,Calm,Calm,-,N/A,,Mostly Cloudy,0,2013-05-08 10:53:00
7:20 AM,53.6,53.6,100,29.99,10.0,Calm,Calm,-,N/A,,Partly Cloudy,0,2013-05-08 11:20:00
7:53 AM,55.9,55.0,97,30.00,10.0,Calm,Calm,-,N/A,,Mostly Cloudy,0,2013-05-08 11:53:00
8:21 AM,57.2,55.4,94,30.01,10.0,Calm,Calm,-,N/A,,Overcast,0,2013-05-08 12:21:00
8:32 AM,57.2,55.4,94,30.01,10.0,Calm,Calm,-,N/A,,Overcast,0,2013-05-08 12:32:00
8:45 AM,59.0,55.4,88,30.01,10.0,Calm,Calm,-,N/A,,Overcast,0,2013-05-08 12:45:00
8:53 AM,59.0,55.9,90,30.01,10.0,Calm,Calm,-,N/A,,Overcast,0,2013-05-08 12:53:00
8:58 AM,59.0,55.4,88,30.01,10.0,Calm,Calm,-,N/A,,Overcast,0,2013-05-08 12:58:00
9:28 AM,60.8,55.4,82,30.01,10.0,WSW,3.5,-,N/A,,Mostly Cloudy,250,2013-05-08 13:28:00
9:53 AM,62.1,55.0,78,30.01,10.0,Calm,Calm,-,N/A,,Mostly Cloudy,0,2013-05-08 13:53:00
10:53 AM,62.1,54.0,75,30.00,10.0,Calm,Calm,-,N/A,,Overcast,0,2013-05-08 14:53:00
11:13 AM,62.6,55.4,77,30.00,10.0,Calm,Calm,-,N/A,,Overcast,0,2013-05-08 15:13:00
11:43 AM,64.4,53.6,68,29.99,10.0,Variable,3.5,-,N/A,,Scattered Clouds,0,2013-05-08 15:43:00
11:53 AM,66.0,55.0,68,29.99,10.0,West,4.6,-,N/A,,Mostly Cloudy,260,2013-05-08 15:53:00
12:01 PM,66.2,55.4,68,29.99,10.0,West,4.6,-,N/A,,Partly Cloudy,260,2013-05-08 16:01:00
12:53 PM,66.9,52.0,59,29.98,10.0,WSW,6.9,-,N/A,,Scattered Clouds,240,2013-05-08 16:53:00
1:53 PM,68.0,50.0,52,29.96,10.0,Calm,Calm,-,N/A,,Mostly Cloudy,0,2013-05-08 17:53:00
2:53 PM,69.1,53.1,57,29.93,10.0,Variable,3.5,-,N/A,,Partly Cloudy,0,2013-05-08 18:53:00
3:53 PM,64.0,53.1,67,29.94,10.0,SSW,6.9,-,N/A,,Overcast,210,2013-05-08 19:53:00
4:53 PM,62.1,51.1,67,29.95,10.0,SW,9.2,17.3,N/A,,Partly Cloudy,220,2013-05-08 20:53:00
5:53 PM,60.1,50.0,69,29.95,10.0,SSW,4.6,-,0.00,,Mostly Cloudy,200,2013-05-08 21:53:00
6:53 PM,59.0,51.1,75,29.95,10.0,SSW,3.5,-,N/A,,Partly Cloudy,210,2013-05-08 22:53:00
7:53 PM,59.0,51.1,75,29.95,10.0,Calm,Calm,-,N/A,,Clear,0,2013-05-08 23:53:00
8:53 PM,55.9,51.1,84,29.95,10.0,Calm,Calm,-,N/A,,Clear,0,2013-05-09 00:53:00
9:53 PM,53.1,50.0,89,29.98,10.0,Calm,Calm,-,N/A,,Clear,0,2013-05-09 01:53:00
10:53 PM,51.1,48.9,92,29.98,9.0,Calm,Calm,-,N/A,,Clear,0,2013-05-09 02:53:00
11:53 PM,50.0,48.9,96,29.98,7.0,Calm,Calm,-,N/A,,Partly Cloudy,0,2013-05-09 03:53:00